Lewistown, MT

7:48 PM MDT on March 29, 2017 (GMT -0600)
Lewistown Municipal

Weather History for KLWT - April, 2013

Change the Weather History Date:

Thursday, April 18, 2013

  Actual Average Record
Temperature  
Mean Temperature 31 °F 42 °F  
Max Temperature 48 °F 54 °F 81 °F (1936)
Min Temperature 14 °F 30 °F 5 °F (1951)
Degree Days  
Heating Degree Days 34 23  
Month to date heating degree days 560 454  
Since 1 July heating degree days 7114 7253  
Cooling Degree Days 0 0  
Month to date cooling degree days 0 0  
Year to date cooling degree days 0 0  
Moisture  
Dew Point 17 °F    
Average Humidity 61    
Maximum Humidity 88    
Minimum Humidity 33    
Precipitation  
Precipitation 0.00 in 0.04 in 1.03 in (2005)
Month to date precipitation 0.78 0.76  
Year to date precipitation 2.91 2.76  
Snow  
Snow 0.00 in - - ()
Snow Depth 0.00 in    
Sea Level Pressure  
Sea Level Pressure 30.20 in    
Wind  
Wind Speed 10 mph (WNW)    
Max Wind Speed 22 mph    
Max Gust Speed 29 mph    
Visibility 10 miles    
Events      
T = Trace of Precipitation, MM = Missing Value Source: NWS Daily Summary

Daily Weather History Graph

Daily Weather History Graph

Search for Another Location

Airport or City:

Trip Planner

Search our weather history database for the weather conditions in past years. The results will help you decide how hot, cold, wet, or windy it might be!

Date:

Astronomy

Apr. 18, 2013 Rise Set
Actual Time 6:23 AM MDT 8:11 PM MDT
Civil Twilight 5:51 AM MDT 8:43 PM MDT
Nautical Twilight 5:12 AM MDT 9:23 PM MDT
Astronomical Twilight 4:28 AM MDT 10:06 PM MDT
Moon 12:34 PM MDT (4/18) 2:32 AM MDT (4/18)
Length of Visible Light 14h 52m
Length of Day
13h 47m
First Quarter, 52% of the Moon is Illuminated
Apr 18
First Quarter
Apr 25
Full
May 2
Last Quarter
May 9
New
May 17
First Quarter

Hourly Weather History & Observations

Time (MDT) Temp. Windchill Dew Point Humidity Pressure Visibility Wind Dir Wind Speed Gust Speed Precip Events Conditions
12:54 AM 17.1 °F 8.7 °F 12.9 °F 84% 30.34 in 10.0 mi East 5.8 mph - N/A   Clear
1:54 AM 16.0 °F 8.8 °F 12.0 °F 84% 30.32 in 10.0 mi SE 4.6 mph - N/A   Clear
2:54 AM 15.1 °F 5.2 °F 10.0 °F 80% 30.29 in 10.0 mi SE 6.9 mph - N/A   Clear
3:54 AM 15.1 °F 4.2 °F 9.0 °F 77% 30.27 in 10.0 mi ESE 8.1 mph - N/A   Clear
4:54 AM 14.0 °F 3.9 °F 8.1 °F 77% 30.27 in 10.0 mi SE 6.9 mph - N/A   Clear
5:54 AM 14.0 °F 3.9 °F 8.1 °F 77% 30.26 in 10.0 mi SE 6.9 mph - N/A   Clear
6:54 AM 16.0 °F 7.4 °F 9.0 °F 74% 30.25 in 10.0 mi SE 5.8 mph - N/A   Clear
7:54 AM 21.9 °F 14.5 °F 12.9 °F 68% 30.24 in 10.0 mi ESE 5.8 mph - N/A   Clear
8:54 AM 33.1 °F 25.5 °F 17.1 °F 52% 30.20 in 10.0 mi West 9.2 mph - N/A   Clear
9:54 AM 36.0 °F 27.5 °F 17.1 °F 46% 30.20 in 10.0 mi WNW 12.7 mph - N/A   Clear
10:54 AM 39.0 °F 34.0 °F 19.0 °F 45% 30.19 in 10.0 mi WNW 6.9 mph - N/A   Clear
11:54 AM 43.0 °F 35.1 °F 18.0 °F 37% 30.18 in 10.0 mi WNW 17.3 mph 23.0 mph N/A   Clear
12:54 PM 45.0 °F 38.2 °F 18.0 °F 34% 30.18 in 10.0 mi WNW 15.0 mph 19.6 mph N/A   Scattered Clouds
1:54 PM 45.0 °F 37.9 °F 17.1 °F 33% 30.17 in 10.0 mi NW 16.1 mph 24.2 mph N/A   Mostly Cloudy
2:54 PM 46.9 °F - 19.9 °F 34% 30.16 in 10.0 mi NW 19.6 mph 26.5 mph N/A   Mostly Cloudy
3:54 PM 46.0 °F 39.0 °F 21.0 °F 37% 30.15 in 10.0 mi WNW 17.3 mph - N/A   Overcast
4:54 PM 46.0 °F 38.5 °F 21.0 °F 37% 30.15 in 10.0 mi WNW 19.6 mph 26.5 mph N/A   Overcast
5:54 PM 46.0 °F 39.6 °F 21.9 °F 39% 30.15 in 10.0 mi NW 15.0 mph 27.6 mph N/A   Overcast
6:54 PM 46.0 °F 41.0 °F 23.0 °F 40% 30.14 in 10.0 mi NNW 10.4 mph 19.6 mph N/A   Overcast
7:54 PM 44.1 °F 39.5 °F 21.9 °F 42% 30.13 in 10.0 mi NW 8.1 mph - N/A   Overcast
8:54 PM 39.9 °F 34.5 °F 23.0 °F 51% 30.11 in 10.0 mi NNW 8.1 mph - N/A   Overcast
9:54 PM 37.9 °F 32.1 °F 25.0 °F 60% 30.12 in 10.0 mi West 8.1 mph - N/A   Overcast
10:54 PM 36.0 °F 31.1 °F 25.0 °F 64% 30.11 in 10.0 mi West 5.8 mph - N/A   Overcast
11:54 PM 32.0 °F 24.8 °F 24.1 °F 73% 30.10 in 10.0 mi WSW 8.1 mph - N/A   Overcast